User: anonymous   Login
Location: Clyde
(45.1830°S, 169.3170°E)
Time: 14:50:35
(UTC+13:00)
Language:

Helios 1B rocket - Orbit

View from above orbital plane
View from above orbital plane
View from above satellite
View from above satellite

Ground track
Ground track

The orbit data is extracted from the following two-line orbital elements,

1 25979U 99064C   19079.83741107  .00000426  00000-0  43988-4 0  9995
2 25979  98.1705 334.4931 0006425   7.2811 352.8501 14.95685410 46082
Epoch (UTC): 20 March 2019 20:05:52
Eccentricity: 0.0006425
inclination: 98.1705°
perigee height: 576 km
apogee height: 585 km
right ascension of ascending node: 334.4931°
argument of perigee: 7.2811°
revolutions per day: 14.95685410
mean anomaly at epoch: 352.8501°
orbit number at epoch: 4608

The dashed part of the orbit path shows where the satellite is in the earth's shadow,  

DLR